Year,Month,Day,Hour,Minute,Value (Times are PST for temperature in C)
2017,02,10,00,00,6.80
2017,02,10,00,01,6.80
2017,02,10,00,02,6.80
2017,02,10,00,03,6.80
2017,02,10,00,04,6.80
2017,02,10,00,05,6.80
2017,02,10,00,06,6.80
2017,02,10,00,07,6.80
2017,02,10,00,08,6.80
2017,02,10,00,09,6.90
2017,02,10,00,10,6.90
2017,02,10,00,11,6.90
2017,02,10,00,12,6.90
2017,02,10,00,13,6.90
2017,02,10,00,14,6.80
2017,02,10,00,15,6.80
2017,02,10,00,16,6.80
2017,02,10,00,17,6.70
2017,02,10,00,18,6.70
2017,02,10,00,19,6.70
2017,02,10,00,20,6.60
2017,02,10,00,21,6.60
2017,02,10,00,22,6.50
2017,02,10,00,23,6.50
2017,02,10,00,24,6.40
2017,02,10,00,25,6.40
2017,02,10,00,26,6.30
2017,02,10,00,27,6.30
2017,02,10,00,28,6.20
2017,02,10,00,29,6.20
2017,02,10,00,30,6.20
2017,02,10,00,31,6.10
2017,02,10,00,32,6.10
2017,02,10,00,33,6.10
2017,02,10,00,34,6.00
2017,02,10,00,35,6.00
2017,02,10,00,36,5.90
2017,02,10,00,37,5.90
2017,02,10,00,38,5.90
2017,02,10,00,39,5.90
2017,02,10,00,40,5.90
2017,02,10,00,41,5.90
2017,02,10,00,42,5.90
2017,02,10,00,43,5.90
2017,02,10,00,44,5.90
2017,02,10,00,45,5.90
2017,02,10,00,46,5.90
2017,02,10,00,47,5.90
2017,02,10,00,48,5.90
2017,02,10,00,49,5.90
2017,02,10,00,50,5.90
2017,02,10,00,51,5.90
2017,02,10,00,52,5.90
2017,02,10,00,53,5.90
2017,02,10,00,54,5.80
2017,02,10,00,55,5.80
2017,02,10,00,56,5.70
2017,02,10,00,57,5.70
2017,02,10,00,58,5.60
2017,02,10,00,59,5.50
2017,02,10,01,00,5.50
2017,02,10,01,01,5.40
2017,02,10,01,02,5.30
2017,02,10,01,03,5.30
2017,02,10,01,04,5.20
2017,02,10,01,05,5.20
2017,02,10,01,06,5.10
2017,02,10,01,07,5.10
2017,02,10,01,08,5.00
2017,02,10,01,09,5.00
2017,02,10,01,10,4.90
2017,02,10,01,11,4.80
2017,02,10,01,12,4.80
2017,02,10,01,13,4.70
2017,02,10,01,14,4.70
2017,02,10,01,15,4.60
2017,02,10,01,16,4.60
2017,02,10,01,17,4.50
2017,02,10,01,18,4.40
2017,02,10,01,19,4.40
2017,02,10,01,20,4.30
2017,02,10,01,21,4.30
2017,02,10,01,22,4.30
2017,02,10,01,23,4.30
2017,02,10,01,24,4.30
2017,02,10,01,25,4.30
2017,02,10,01,26,4.30
2017,02,10,01,27,4.30
2017,02,10,01,28,4.30
2017,02,10,01,29,4.30
2017,02,10,01,30,4.30
2017,02,10,01,31,4.30
2017,02,10,01,32,4.30
2017,02,10,01,33,4.30
2017,02,10,01,34,4.30
2017,02,10,01,35,4.30
2017,02,10,01,36,4.30
2017,02,10,01,37,4.20
2017,02,10,01,38,4.20
2017,02,10,01,39,4.10
2017,02,10,01,40,4.10
2017,02,10,01,41,4.10
2017,02,10,01,42,4.10
2017,02,10,01,43,4.10
2017,02,10,01,44,4.10
2017,02,10,01,45,4.10
2017,02,10,01,46,4.10
2017,02,10,01,47,4.20
2017,02,10,01,48,4.40
2017,02,10,01,49,4.40
2017,02,10,01,50,4.40
2017,02,10,01,51,4.40
2017,02,10,01,52,4.40
2017,02,10,01,53,4.40
2017,02,10,01,54,4.40
2017,02,10,01,55,4.40
2017,02,10,01,56,4.30
2017,02,10,01,57,4.30
2017,02,10,01,58,4.30
2017,02,10,01,59,4.20
2017,02,10,02,00,4.10
2017,02,10,02,01,4.00
2017,02,10,02,02,3.90
2017,02,10,02,03,3.90
2017,02,10,02,04,3.80
2017,02,10,02,05,3.70
2017,02,10,02,06,3.70
2017,02,10,02,07,3.60
2017,02,10,02,08,3.60
2017,02,10,02,09,3.50
2017,02,10,02,10,3.50
2017,02,10,02,11,3.40
2017,02,10,02,12,3.40
2017,02,10,02,13,3.30
2017,02,10,02,14,3.30
2017,02,10,02,15,3.30
2017,02,10,02,16,3.30
2017,02,10,02,17,3.20
2017,02,10,02,18,3.20
2017,02,10,02,19,3.10
2017,02,10,02,20,3.10
2017,02,10,02,21,3.00
2017,02,10,02,22,3.00
2017,02,10,02,23,2.90
2017,02,10,02,24,2.90
2017,02,10,02,25,2.90
2017,02,10,02,26,2.80
2017,02,10,02,27,2.80
2017,02,10,02,28,2.80
2017,02,10,02,29,2.70
2017,02,10,02,30,2.70
2017,02,10,02,31,2.60
2017,02,10,02,32,2.60
2017,02,10,02,33,2.60
2017,02,10,02,34,2.50
2017,02,10,02,35,2.50
2017,02,10,02,36,2.50
2017,02,10,02,37,2.50
2017,02,10,02,38,2.50
2017,02,10,02,39,2.60
2017,02,10,02,40,2.60
2017,02,10,02,41,2.60
2017,02,10,02,42,2.60
2017,02,10,02,43,2.60
2017,02,10,02,44,2.60
2017,02,10,02,45,2.60
2017,02,10,02,46,2.60
2017,02,10,02,47,2.60
2017,02,10,02,48,2.70
2017,02,10,02,49,2.80
2017,02,10,02,50,3.00
2017,02,10,02,51,3.10
2017,02,10,02,52,3.10
2017,02,10,02,53,3.00
2017,02,10,02,54,2.90
2017,02,10,02,55,2.70
2017,02,10,02,56,2.70
2017,02,10,02,57,2.60
2017,02,10,02,58,2.50
2017,02,10,02,59,2.40
2017,02,10,03,00,2.40
2017,02,10,03,01,2.30
2017,02,10,03,02,2.40
2017,02,10,03,03,2.40
2017,02,10,03,04,2.40
2017,02,10,03,05,2.40
2017,02,10,03,06,2.40
2017,02,10,03,07,2.50
2017,02,10,03,08,2.50
2017,02,10,03,09,2.50
2017,02,10,03,10,2.50
2017,02,10,03,11,2.60
2017,02,10,03,12,2.60
2017,02,10,03,13,2.70
2017,02,10,03,14,2.70
2017,02,10,03,15,2.60
2017,02,10,03,16,2.60
2017,02,10,03,17,2.60
2017,02,10,03,18,2.60
2017,02,10,03,19,2.60
2017,02,10,03,20,2.60
2017,02,10,03,21,2.60
2017,02,10,03,22,2.60
2017,02,10,03,23,2.60
2017,02,10,03,24,2.60
2017,02,10,03,25,2.50
2017,02,10,03,26,2.50
2017,02,10,03,27,2.50
2017,02,10,03,28,2.50
2017,02,10,03,29,2.50
2017,02,10,03,30,2.50
2017,02,10,03,31,2.50
2017,02,10,03,32,2.60
2017,02,10,03,33,2.60
2017,02,10,03,34,2.60
2017,02,10,03,35,2.70
2017,02,10,03,36,2.70
2017,02,10,03,37,2.80
2017,02,10,03,38,2.80
2017,02,10,03,39,2.80
2017,02,10,03,40,2.80
2017,02,10,03,41,2.80
2017,02,10,03,42,2.80
2017,02,10,03,43,2.80
2017,02,10,03,44,2.80
2017,02,10,03,45,2.80
2017,02,10,03,46,2.80
2017,02,10,03,47,2.80
2017,02,10,03,48,2.80
2017,02,10,03,49,2.80
2017,02,10,03,50,2.90
2017,02,10,03,51,2.90
2017,02,10,03,52,2.80
2017,02,10,03,53,2.70
2017,02,10,03,54,2.60
2017,02,10,03,55,2.50
2017,02,10,03,56,2.50
2017,02,10,03,57,2.40
2017,02,10,03,58,2.30
2017,02,10,03,59,2.30
2017,02,10,04,00,2.30
2017,02,10,04,01,2.30
2017,02,10,04,02,2.30
2017,02,10,04,03,2.30
2017,02,10,04,04,2.30
2017,02,10,04,05,2.20
2017,02,10,04,06,2.20
2017,02,10,04,07,2.20
2017,02,10,04,08,2.20
2017,02,10,04,09,2.20
2017,02,10,04,10,2.20
2017,02,10,04,11,2.20
2017,02,10,04,12,2.20
2017,02,10,04,13,2.10
2017,02,10,04,14,2.10
2017,02,10,04,15,2.00
2017,02,10,04,16,2.00
2017,02,10,04,17,1.90
2017,02,10,04,18,1.90
2017,02,10,04,19,1.80
2017,02,10,04,20,1.70
2017,02,10,04,21,1.70
2017,02,10,04,22,1.60
2017,02,10,04,23,1.60
2017,02,10,04,24,1.50
2017,02,10,04,25,1.50
2017,02,10,04,26,1.40
2017,02,10,04,27,1.40
2017,02,10,04,28,1.30
2017,02,10,04,29,1.30
2017,02,10,04,30,1.30
2017,02,10,04,31,1.30
2017,02,10,04,32,1.30
2017,02,10,04,33,1.30
2017,02,10,04,34,1.30
2017,02,10,04,35,1.30
2017,02,10,04,36,1.30
2017,02,10,04,37,1.30
2017,02,10,04,38,1.30
2017,02,10,04,39,1.30
2017,02,10,04,40,1.30
2017,02,10,04,41,1.30
2017,02,10,04,42,1.30
2017,02,10,04,43,1.30
2017,02,10,04,44,1.30
2017,02,10,04,45,1.30
2017,02,10,04,46,1.30
2017,02,10,04,47,1.30
2017,02,10,04,48,1.30
2017,02,10,04,49,1.30
2017,02,10,04,50,1.30
2017,02,10,04,51,1.30
2017,02,10,04,52,1.30
2017,02,10,04,53,1.30
2017,02,10,04,54,1.30
2017,02,10,04,55,1.30
2017,02,10,04,56,1.30
2017,02,10,04,57,1.30
2017,02,10,04,58,1.30
2017,02,10,04,59,1.30
2017,02,10,05,00,1.30
2017,02,10,05,01,1.30
2017,02,10,05,02,1.30
2017,02,10,05,03,1.30
2017,02,10,05,04,1.30
2017,02,10,05,05,1.30
2017,02,10,05,06,1.30
2017,02,10,05,07,1.30
2017,02,10,05,08,1.30
2017,02,10,05,09,1.30
2017,02,10,05,10,1.40
2017,02,10,05,11,1.40
2017,02,10,05,12,1.40
2017,02,10,05,13,1.40
2017,02,10,05,14,1.50
2017,02,10,05,15,1.50
2017,02,10,05,16,1.60
2017,02,10,05,17,1.50
2017,02,10,05,18,1.50
2017,02,10,05,19,1.40
2017,02,10,05,20,1.40
2017,02,10,05,21,1.40
2017,02,10,05,22,1.40
2017,02,10,05,23,1.40
2017,02,10,05,24,1.50
2017,02,10,05,25,1.50
2017,02,10,05,26,1.60
2017,02,10,05,27,1.60
2017,02,10,05,28,1.60
2017,02,10,05,29,1.60
2017,02,10,05,30,1.60
2017,02,10,05,31,1.60
2017,02,10,05,32,1.60
2017,02,10,05,33,1.60
2017,02,10,05,34,1.60
2017,02,10,05,35,1.60
2017,02,10,05,36,1.60
2017,02,10,05,37,1.60
2017,02,10,05,38,1.60
2017,02,10,05,39,1.60
2017,02,10,05,40,1.60
2017,02,10,05,41,1.60
2017,02,10,05,42,1.60
2017,02,10,05,43,1.60
2017,02,10,05,44,1.60
2017,02,10,05,45,1.50
2017,02,10,05,46,1.50
2017,02,10,05,47,1.50
2017,02,10,05,48,1.50
2017,02,10,05,49,1.50
2017,02,10,05,50,1.50
2017,02,10,05,51,1.50
2017,02,10,05,52,1.60
2017,02,10,05,53,1.60
2017,02,10,05,54,1.60
2017,02,10,05,55,1.60
2017,02,10,05,56,1.60
2017,02,10,05,57,1.60
2017,02,10,05,58,1.60
2017,02,10,05,59,1.60
2017,02,10,06,00,1.60
2017,02,10,06,01,1.60
2017,02,10,06,02,1.60
2017,02,10,06,03,1.60
2017,02,10,06,04,1.50
2017,02,10,06,05,1.50
2017,02,10,06,06,1.40
2017,02,10,06,07,1.30
2017,02,10,06,08,1.30
2017,02,10,06,09,1.30
2017,02,10,06,10,1.30
2017,02,10,06,11,1.30
2017,02,10,06,12,1.30
2017,02,10,06,13,1.30
2017,02,10,06,14,1.30
2017,02,10,06,15,1.30
2017,02,10,06,16,1.30
2017,02,10,06,17,1.30
2017,02,10,06,18,1.40
2017,02,10,06,19,1.40
2017,02,10,06,20,1.50
2017,02,10,06,21,1.50
2017,02,10,06,22,1.50
2017,02,10,06,23,1.60
2017,02,10,06,24,1.50
2017,02,10,06,25,1.50
2017,02,10,06,26,1.50
2017,02,10,06,27,1.50
2017,02,10,06,28,1.40
2017,02,10,06,29,1.40
2017,02,10,06,30,1.40
2017,02,10,06,31,1.40
2017,02,10,06,32,1.40
2017,02,10,06,33,1.40
2017,02,10,06,34,1.40
2017,02,10,06,35,1.40
2017,02,10,06,36,1.40
2017,02,10,06,37,1.40
2017,02,10,06,38,1.40
2017,02,10,06,39,1.30
2017,02,10,06,40,1.30
2017,02,10,06,41,1.30
2017,02,10,06,42,1.30
2017,02,10,06,43,1.30
2017,02,10,06,44,1.30
2017,02,10,06,45,1.30
2017,02,10,06,46,1.30
2017,02,10,06,47,1.30
2017,02,10,06,48,1.30
2017,02,10,06,49,1.30
2017,02,10,06,50,1.40
2017,02,10,06,51,1.50
2017,02,10,06,52,1.50
2017,02,10,06,53,1.50
2017,02,10,06,54,1.60
2017,02,10,06,55,1.60
2017,02,10,06,56,1.70
2017,02,10,06,57,1.70
2017,02,10,06,58,1.70
2017,02,10,06,59,1.70
2017,02,10,07,00,1.70
2017,02,10,07,01,1.70
2017,02,10,07,02,1.70
2017,02,10,07,03,1.70
2017,02,10,07,04,1.70
2017,02,10,07,05,1.70
2017,02,10,07,06,1.70
2017,02,10,07,07,1.70
2017,02,10,07,08,1.70
2017,02,10,07,09,1.70
2017,02,10,07,10,1.70
2017,02,10,07,11,1.60
2017,02,10,07,12,1.60
2017,02,10,07,13,1.60
2017,02,10,07,14,1.60
2017,02,10,07,15,1.60
2017,02,10,07,16,1.60
2017,02,10,07,17,1.60
2017,02,10,07,18,1.60
2017,02,10,07,19,1.60
2017,02,10,07,20,1.60
2017,02,10,07,21,1.60
2017,02,10,07,22,1.60
2017,02,10,07,23,1.70
2017,02,10,07,24,1.70
2017,02,10,07,25,1.70
2017,02,10,07,26,1.70
2017,02,10,07,27,1.70
2017,02,10,07,28,1.70
2017,02,10,07,29,1.60
2017,02,10,07,30,1.60
2017,02,10,07,31,1.60
2017,02,10,07,32,1.60
2017,02,10,07,33,1.60
2017,02,10,07,34,1.60
2017,02,10,07,35,1.60
2017,02,10,07,36,1.60
2017,02,10,07,37,1.60
2017,02,10,07,38,1.60
2017,02,10,07,39,1.60
2017,02,10,07,40,1.60
2017,02,10,07,41,1.60
2017,02,10,07,42,1.60
2017,02,10,07,43,1.60
2017,02,10,07,44,1.60
2017,02,10,07,45,1.60
2017,02,10,07,46,1.60
2017,02,10,07,47,1.60
2017,02,10,07,48,1.60
2017,02,10,07,49,1.60
2017,02,10,07,50,1.60
2017,02,10,07,51,1.60
2017,02,10,07,52,1.60
2017,02,10,07,53,1.60
2017,02,10,07,54,1.60
2017,02,10,07,55,1.60
2017,02,10,07,56,1.50
2017,02,10,07,57,1.50
2017,02,10,07,58,1.50
2017,02,10,07,59,1.40
2017,02,10,08,00,1.40
2017,02,10,08,01,1.40
2017,02,10,08,02,1.40
2017,02,10,08,03,1.40
2017,02,10,08,04,1.40
2017,02,10,08,05,1.40
2017,02,10,08,06,1.40
2017,02,10,08,07,1.40
2017,02,10,08,08,1.40
2017,02,10,08,09,1.40
2017,02,10,08,10,1.40
2017,02,10,08,11,1.40
2017,02,10,08,12,1.50
2017,02,10,08,13,1.50
2017,02,10,08,14,1.50
2017,02,10,08,15,1.50
2017,02,10,08,16,1.60
2017,02,10,08,17,1.60
2017,02,10,08,18,1.60
2017,02,10,08,19,1.60
2017,02,10,08,20,1.70
2017,02,10,08,21,1.70
2017,02,10,08,22,1.70
2017,02,10,08,23,1.70
2017,02,10,08,24,1.70
2017,02,10,08,25,1.80
2017,02,10,08,26,1.80
2017,02,10,08,27,1.80
2017,02,10,08,28,1.80
2017,02,10,08,29,1.80
2017,02,10,08,30,1.80
2017,02,10,08,31,1.80
2017,02,10,08,32,1.80
2017,02,10,08,33,1.80
2017,02,10,08,34,1.80
2017,02,10,08,35,1.90
2017,02,10,08,36,1.90
2017,02,10,08,37,1.90
2017,02,10,08,38,1.90
2017,02,10,08,39,1.90
2017,02,10,08,40,1.90
2017,02,10,08,41,2.00
2017,02,10,08,42,2.00
2017,02,10,08,43,2.10
2017,02,10,08,44,2.10
2017,02,10,08,45,2.10
2017,02,10,08,46,2.10
2017,02,10,08,47,2.10
2017,02,10,08,48,2.10
2017,02,10,08,49,2.10
2017,02,10,08,50,2.10
2017,02,10,08,51,2.10
2017,02,10,08,52,2.10
2017,02,10,08,53,2.10
2017,02,10,08,54,2.10
2017,02,10,08,55,2.00
2017,02,10,08,56,2.00
2017,02,10,08,57,1.90
2017,02,10,08,58,1.90
2017,02,10,08,59,1.90
2017,02,10,09,00,1.90
2017,02,10,09,01,1.90
2017,02,10,09,02,1.90
2017,02,10,09,03,1.90
2017,02,10,09,04,1.90
2017,02,10,09,05,1.90
2017,02,10,09,06,2.00
2017,02,10,09,07,2.00
2017,02,10,09,08,2.00
2017,02,10,09,09,2.10
2017,02,10,09,10,2.10
2017,02,10,09,11,2.10
2017,02,10,09,12,2.10
2017,02,10,09,13,2.10
2017,02,10,09,14,2.10
2017,02,10,09,15,2.10
2017,02,10,09,16,2.10
2017,02,10,09,17,2.10
2017,02,10,09,18,2.20
2017,02,10,09,19,2.20
2017,02,10,09,20,2.20
2017,02,10,09,21,2.20
2017,02,10,09,22,2.30
2017,02,10,09,23,2.30
2017,02,10,09,24,2.30
2017,02,10,09,25,2.30
2017,02,10,09,26,2.40
2017,02,10,09,27,2.40
2017,02,10,09,28,2.40
2017,02,10,09,29,2.40
2017,02,10,09,30,2.40
2017,02,10,09,31,2.40
2017,02,10,09,32,2.30
2017,02,10,09,33,2.30
2017,02,10,09,34,2.30
2017,02,10,09,35,2.30
2017,02,10,09,36,2.20
2017,02,10,09,37,2.20
2017,02,10,09,38,2.20
2017,02,10,09,39,2.20
2017,02,10,09,40,2.20
2017,02,10,09,41,2.30
2017,02,10,09,42,2.30
2017,02,10,09,43,2.30
2017,02,10,09,44,2.30
2017,02,10,09,45,2.30
2017,02,10,09,46,2.30
2017,02,10,09,47,2.40
2017,02,10,09,48,2.40
2017,02,10,09,49,2.40
2017,02,10,09,50,2.40
2017,02,10,09,51,2.50
2017,02,10,09,52,2.50
2017,02,10,09,53,2.60
2017,02,10,09,54,2.60
2017,02,10,09,55,2.60
2017,02,10,09,56,2.60
2017,02,10,09,57,2.60
2017,02,10,09,58,2.70
2017,02,10,09,59,2.70
2017,02,10,10,00,2.70
2017,02,10,10,01,2.70
2017,02,10,10,02,2.80
2017,02,10,10,03,2.80
2017,02,10,10,04,2.80
2017,02,10,10,05,2.80
2017,02,10,10,06,2.90
2017,02,10,10,07,2.90
2017,02,10,10,08,2.90
2017,02,10,10,09,2.90
2017,02,10,10,10,2.90
2017,02,10,10,11,2.90
2017,02,10,10,12,2.90
2017,02,10,10,13,2.90
2017,02,10,10,14,2.90
2017,02,10,10,15,3.00
2017,02,10,10,16,3.00
2017,02,10,10,17,3.10
2017,02,10,10,18,3.10
2017,02,10,10,19,3.10
2017,02,10,10,20,3.00
2017,02,10,10,21,3.00
2017,02,10,10,22,3.00
2017,02,10,10,23,3.00
2017,02,10,10,24,3.00
2017,02,10,10,25,3.10
2017,02,10,10,26,3.10
2017,02,10,10,27,3.10
2017,02,10,10,28,3.20
2017,02,10,10,29,3.30
2017,02,10,10,30,3.30
2017,02,10,10,31,3.30
2017,02,10,10,32,3.40
2017,02,10,10,33,3.40
2017,02,10,10,34,3.50
2017,02,10,10,35,3.50
2017,02,10,10,36,3.50
2017,02,10,10,37,3.60
2017,02,10,10,38,3.60
2017,02,10,10,39,3.60
2017,02,10,10,40,3.60
2017,02,10,10,41,3.60
2017,02,10,10,42,3.60
2017,02,10,10,43,3.60
2017,02,10,10,44,3.60
2017,02,10,10,45,3.60
2017,02,10,10,46,3.60
2017,02,10,10,47,3.60
2017,02,10,10,48,3.60
2017,02,10,10,49,3.70
2017,02,10,10,50,3.70
2017,02,10,10,51,3.80
2017,02,10,10,52,3.80
2017,02,10,10,53,3.80
2017,02,10,10,54,3.80
2017,02,10,10,55,3.90
2017,02,10,10,56,3.90
2017,02,10,10,57,4.00
2017,02,10,10,58,4.10
2017,02,10,10,59,4.10
2017,02,10,11,00,4.20
2017,02,10,11,01,4.20
2017,02,10,11,02,4.20
2017,02,10,11,03,4.30
2017,02,10,11,04,4.30
2017,02,10,11,05,4.30
2017,02,10,11,06,4.30
2017,02,10,11,07,4.30
2017,02,10,11,08,4.30
2017,02,10,11,09,4.40
2017,02,10,11,10,4.40
2017,02,10,11,11,4.50
2017,02,10,11,12,4.50
2017,02,10,11,13,4.60
2017,02,10,11,14,4.60
2017,02,10,11,15,4.70
2017,02,10,11,16,4.70
2017,02,10,11,17,4.70
2017,02,10,11,18,4.70
2017,02,10,11,19,4.60
2017,02,10,11,20,4.50
2017,02,10,11,21,4.40
2017,02,10,11,22,4.30
2017,02,10,11,23,4.30
2017,02,10,11,24,4.20
2017,02,10,11,25,4.20
2017,02,10,11,26,4.20
2017,02,10,11,27,4.20
2017,02,10,11,28,4.20
2017,02,10,11,29,4.30
2017,02,10,11,30,4.30
2017,02,10,11,31,4.30
2017,02,10,11,32,4.30
2017,02,10,11,33,4.30
2017,02,10,11,34,4.30
2017,02,10,11,35,4.40
2017,02,10,11,36,4.40
2017,02,10,11,37,4.50
2017,02,10,11,38,4.50
2017,02,10,11,39,4.60
2017,02,10,11,40,4.60
2017,02,10,11,41,4.70
2017,02,10,11,42,4.70
2017,02,10,11,43,4.70
2017,02,10,11,44,4.70
2017,02,10,11,45,4.80
2017,02,10,11,46,4.80
2017,02,10,11,47,4.80
2017,02,10,11,48,4.80
2017,02,10,11,49,4.80
2017,02,10,11,50,4.90
2017,02,10,11,51,4.90
2017,02,10,11,52,5.00
2017,02,10,11,53,5.00
2017,02,10,11,54,5.00
2017,02,10,11,55,5.00
2017,02,10,11,56,5.10
2017,02,10,11,57,5.10
2017,02,10,11,58,5.10
2017,02,10,11,59,5.10
2017,02,10,12,00,5.10
2017,02,10,12,01,5.10
2017,02,10,12,02,5.10
2017,02,10,12,03,5.10
2017,02,10,12,04,5.10
2017,02,10,12,05,5.10
2017,02,10,12,06,5.10
2017,02,10,12,07,5.20
2017,02,10,12,08,5.20
2017,02,10,12,09,5.20
2017,02,10,12,10,5.30
2017,02,10,12,11,5.30
2017,02,10,12,12,5.30
2017,02,10,12,13,5.30
2017,02,10,12,14,5.30
2017,02,10,12,15,5.40
2017,02,10,12,16,5.40
2017,02,10,12,17,5.40
2017,02,10,12,18,5.40
2017,02,10,12,19,5.40
2017,02,10,12,20,5.40
2017,02,10,12,21,5.40
2017,02,10,12,22,5.40
2017,02,10,12,23,5.40
2017,02,10,12,24,5.40
2017,02,10,12,25,5.40
2017,02,10,12,26,5.40
2017,02,10,12,27,5.40
2017,02,10,12,28,5.40
2017,02,10,12,29,5.40
2017,02,10,12,30,5.40
2017,02,10,12,31,5.40
2017,02,10,12,32,5.30
2017,02,10,12,33,5.30
2017,02,10,12,34,5.30
2017,02,10,12,35,5.20
2017,02,10,12,36,5.20
2017,02,10,12,37,5.20
2017,02,10,12,38,5.20
2017,02,10,12,39,5.20
2017,02,10,12,40,5.10
2017,02,10,12,41,5.10
2017,02,10,12,42,5.10
2017,02,10,12,43,5.10
2017,02,10,12,44,5.00
2017,02,10,12,45,5.00
2017,02,10,12,46,4.90
2017,02,10,12,47,4.90
2017,02,10,12,48,4.90
2017,02,10,12,49,4.90
2017,02,10,12,50,4.90
2017,02,10,12,51,4.90
2017,02,10,12,52,4.90
2017,02,10,12,53,4.90
2017,02,10,12,54,4.90
2017,02,10,12,55,4.90
2017,02,10,12,56,4.90
2017,02,10,12,57,4.90
2017,02,10,12,58,4.90
2017,02,10,12,59,4.90
2017,02,10,13,00,4.90
2017,02,10,13,01,4.90
2017,02,10,13,02,4.90
2017,02,10,13,03,4.90
2017,02,10,13,04,4.80
2017,02,10,13,05,4.70
2017,02,10,13,06,4.70
2017,02,10,13,07,4.60
2017,02,10,13,08,4.60
2017,02,10,13,09,4.70
2017,02,10,13,10,4.60
2017,02,10,13,11,4.60
2017,02,10,13,12,4.60
2017,02,10,13,13,4.60
2017,02,10,13,14,4.50
2017,02,10,13,15,4.50
2017,02,10,13,16,4.40
2017,02,10,13,17,4.40
2017,02,10,13,18,4.40
2017,02,10,13,19,4.40
2017,02,10,13,20,4.40
2017,02,10,13,21,4.40
2017,02,10,13,22,4.40
2017,02,10,13,23,4.40
2017,02,10,13,24,4.30
2017,02,10,13,25,4.30
2017,02,10,13,26,4.30
2017,02,10,13,27,4.30
2017,02,10,13,28,4.30
2017,02,10,13,29,4.30
2017,02,10,13,30,4.30
2017,02,10,13,31,4.30
2017,02,10,13,32,4.30
2017,02,10,13,33,4.30
2017,02,10,13,34,4.30
2017,02,10,13,35,4.30
2017,02,10,13,36,4.30
2017,02,10,13,37,4.40
2017,02,10,13,38,4.40
2017,02,10,13,39,4.40
2017,02,10,13,40,4.40
2017,02,10,13,41,4.40
2017,02,10,13,42,4.40
2017,02,10,13,43,4.40
2017,02,10,13,44,4.40
2017,02,10,13,45,4.50
2017,02,10,13,46,4.50
2017,02,10,13,47,4.50
2017,02,10,13,48,4.60
2017,02,10,13,49,4.50
2017,02,10,13,50,4.50
2017,02,10,13,51,4.50
2017,02,10,13,52,4.50
2017,02,10,13,53,4.60
2017,02,10,13,54,4.60
2017,02,10,13,55,4.50
2017,02,10,13,56,4.50
2017,02,10,13,57,4.50
2017,02,10,13,58,4.40
2017,02,10,13,59,4.30
2017,02,10,14,00,4.30
2017,02,10,14,01,4.30
2017,02,10,14,02,4.30
2017,02,10,14,03,4.30
2017,02,10,14,04,4.30
2017,02,10,14,05,4.30
2017,02,10,14,06,4.30
2017,02,10,14,07,4.30
2017,02,10,14,08,4.30
2017,02,10,14,09,4.40
2017,02,10,14,10,4.40
2017,02,10,14,11,4.40
2017,02,10,14,12,4.50
2017,02,10,14,13,4.50
2017,02,10,14,14,4.50
2017,02,10,14,15,4.50
2017,02,10,14,16,4.50
2017,02,10,14,17,4.50
2017,02,10,14,18,4.40
2017,02,10,14,19,4.40
2017,02,10,14,20,4.40
2017,02,10,14,21,4.40
2017,02,10,14,22,4.30
2017,02,10,14,23,4.30
2017,02,10,14,24,4.30
2017,02,10,14,25,4.30
2017,02,10,14,26,4.20
2017,02,10,14,27,4.20
2017,02,10,14,28,4.20
2017,02,10,14,29,4.20
2017,02,10,14,30,4.20
2017,02,10,14,31,4.20
2017,02,10,14,32,4.20
2017,02,10,14,33,4.20
2017,02,10,14,34,4.30
2017,02,10,14,35,4.30
2017,02,10,14,36,4.40
2017,02,10,14,37,4.50
2017,02,10,14,38,4.60
2017,02,10,14,39,4.70
2017,02,10,14,40,4.70
2017,02,10,14,41,4.70
2017,02,10,14,42,4.70
2017,02,10,14,43,4.70
2017,02,10,14,44,4.70
2017,02,10,14,45,4.80
2017,02,10,14,46,4.80
2017,02,10,14,47,4.80
2017,02,10,14,48,4.80
2017,02,10,14,49,4.80
2017,02,10,14,50,4.90
2017,02,10,14,51,4.90
2017,02,10,14,52,4.90
2017,02,10,14,53,4.90
2017,02,10,14,54,4.90
2017,02,10,14,55,4.90
2017,02,10,14,56,4.90
2017,02,10,14,57,5.00
2017,02,10,14,58,5.00
2017,02,10,14,59,5.10
2017,02,10,15,00,5.20
2017,02,10,15,01,5.30
2017,02,10,15,02,5.30
2017,02,10,15,03,5.40
2017,02,10,15,04,5.40
2017,02,10,15,05,5.40
2017,02,10,15,06,5.40
2017,02,10,15,07,5.40
2017,02,10,15,08,5.40
2017,02,10,15,09,5.40
2017,02,10,15,10,5.40
2017,02,10,15,11,5.40
2017,02,10,15,12,5.30
2017,02,10,15,13,5.30
2017,02,10,15,14,5.30
2017,02,10,15,15,5.30
2017,02,10,15,16,5.30
2017,02,10,15,17,5.30
2017,02,10,15,18,5.30
2017,02,10,15,19,5.30
2017,02,10,15,20,5.30
2017,02,10,15,21,5.30
2017,02,10,15,22,5.30
2017,02,10,15,23,5.30
2017,02,10,15,24,5.30
2017,02,10,15,25,5.30
2017,02,10,15,26,5.30
2017,02,10,15,27,5.30
2017,02,10,15,28,5.30
2017,02,10,15,29,5.30
2017,02,10,15,30,5.30
2017,02,10,15,31,5.30
2017,02,10,15,32,5.30
2017,02,10,15,33,5.30
2017,02,10,15,34,5.30
2017,02,10,15,35,5.30
2017,02,10,15,36,5.30
2017,02,10,15,37,5.30
2017,02,10,15,38,5.30
2017,02,10,15,39,5.30
2017,02,10,15,40,5.20
2017,02,10,15,41,5.20
2017,02,10,15,42,5.20
2017,02,10,15,43,5.20
2017,02,10,15,44,5.20
2017,02,10,15,45,5.20
2017,02,10,15,46,5.20
2017,02,10,15,47,5.20
2017,02,10,15,48,5.20
2017,02,10,15,49,5.20
2017,02,10,15,50,5.20
2017,02,10,15,51,5.20
2017,02,10,15,52,5.10
2017,02,10,15,53,5.10
2017,02,10,15,54,5.10
2017,02,10,15,55,5.10
2017,02,10,15,56,5.00
2017,02,10,15,57,5.00
2017,02,10,15,58,5.00
2017,02,10,15,59,4.90
2017,02,10,16,00,4.90
2017,02,10,16,01,4.90
2017,02,10,16,02,4.90
2017,02,10,16,03,4.90
2017,02,10,16,04,4.90
2017,02,10,16,05,4.90
2017,02,10,16,06,4.90
2017,02,10,16,07,4.90
2017,02,10,16,08,4.90
2017,02,10,16,09,4.90
2017,02,10,16,10,4.90
2017,02,10,16,11,4.90
2017,02,10,16,12,4.90
2017,02,10,16,13,4.90
2017,02,10,16,14,4.90
2017,02,10,16,15,4.90
2017,02,10,16,16,4.90
2017,02,10,16,17,4.90
2017,02,10,16,18,4.90
2017,02,10,16,19,4.90
2017,02,10,16,20,4.90
2017,02,10,16,21,4.90
2017,02,10,16,22,4.80
2017,02,10,16,23,4.80
2017,02,10,16,24,4.70
2017,02,10,16,25,4.70
2017,02,10,16,26,4.60
2017,02,10,16,27,4.50
2017,02,10,16,28,4.50
2017,02,10,16,29,4.40
2017,02,10,16,30,4.30
2017,02,10,16,31,4.30
2017,02,10,16,32,4.30
2017,02,10,16,33,4.30
2017,02,10,16,34,4.30
2017,02,10,16,35,4.30
2017,02,10,16,36,4.20
2017,02,10,16,37,4.20
2017,02,10,16,38,4.30
2017,02,10,16,39,4.30
2017,02,10,16,40,4.20
2017,02,10,16,41,4.20
2017,02,10,16,42,4.20
2017,02,10,16,43,4.20
2017,02,10,16,44,4.30
2017,02,10,16,45,4.20
2017,02,10,16,46,4.20
2017,02,10,16,47,4.20
2017,02,10,16,48,4.20
2017,02,10,16,49,4.20
2017,02,10,16,50,4.10
2017,02,10,16,51,4.10
2017,02,10,16,52,4.00
2017,02,10,16,53,4.00
2017,02,10,16,54,3.90
2017,02,10,16,55,3.90
2017,02,10,16,56,3.90
2017,02,10,16,57,3.90
2017,02,10,16,58,3.90
2017,02,10,16,59,3.90
2017,02,10,17,00,3.80
2017,02,10,17,01,3.80
2017,02,10,17,02,3.80
2017,02,10,17,03,3.80
2017,02,10,17,04,3.80
2017,02,10,17,05,3.80
2017,02,10,17,06,3.80
2017,02,10,17,07,3.80
2017,02,10,17,08,3.80
2017,02,10,17,09,3.70
2017,02,10,17,10,3.70
2017,02,10,17,11,3.70
2017,02,10,17,12,3.80
2017,02,10,17,13,3.80
2017,02,10,17,14,3.80
2017,02,10,17,15,3.80
2017,02,10,17,16,3.70
2017,02,10,17,17,3.70
2017,02,10,17,18,3.70
2017,02,10,17,19,3.70
2017,02,10,17,20,3.70
2017,02,10,17,21,3.70
2017,02,10,17,22,3.70
2017,02,10,17,23,3.70
2017,02,10,17,24,3.70
2017,02,10,17,25,3.70
2017,02,10,17,26,3.70
2017,02,10,17,27,3.70
2017,02,10,17,28,3.70
2017,02,10,17,29,3.70
2017,02,10,17,30,3.70
2017,02,10,17,31,3.70
2017,02,10,17,32,3.70
2017,02,10,17,33,3.70
2017,02,10,17,34,3.70
2017,02,10,17,35,3.70
2017,02,10,17,36,3.70
2017,02,10,17,37,3.70
2017,02,10,17,38,3.70
2017,02,10,17,39,3.60
2017,02,10,17,40,3.60
2017,02,10,17,41,3.60
2017,02,10,17,42,3.60
2017,02,10,17,43,3.60
2017,02,10,17,44,3.60
2017,02,10,17,45,3.70
2017,02,10,17,46,3.70
2017,02,10,17,47,3.70
2017,02,10,17,48,3.80
2017,02,10,17,49,3.70
2017,02,10,17,50,3.70
2017,02,10,17,51,3.70
2017,02,10,17,52,3.80
2017,02,10,17,53,3.80
2017,02,10,17,54,3.80
2017,02,10,17,55,3.80
2017,02,10,17,56,3.80
2017,02,10,17,57,3.80
2017,02,10,17,58,3.70
2017,02,10,17,59,3.70
2017,02,10,18,00,3.70
2017,02,10,18,01,3.70
2017,02,10,18,02,3.70
2017,02,10,18,03,3.70
2017,02,10,18,04,3.70
2017,02,10,18,05,3.70
2017,02,10,18,06,3.70